Location: Julian California
(33.0790°N, 116.6010°W)
Time: 06:15:22
(UTC-07:00)

Cosmos 1975 - Pass Details

Date: 19 May 2017
Orbit: 544 x 564 km, 82.5° (Epoch: 28 May)

Event Time Altitude Azimuth Distance (km) Brightness Sun altitude
Rises 20:41:41 0° 7° (N) 2,729 6.8 -11.7°
Reaches altitude 10° 20:44:06 10° 19° (NNE) 1,835 5.7 -12.1°
Maximum altitude 20:47:36 28° 79° (E) 1,060 3.9 -12.7°
Enters shadow 20:49:19 21° 119° (ESE) 1,290 4.1 -13.0°
